Location: Kalberh�ni
(46.4610°N, 7.2453°E)
Time: 08:50:37
(UTC+00:00)

Cosmos 1455 - Pass Details

Date: 27 October 2021
Orbit: 496 x 520 km, 82.5° (Epoch: 27 November)

Event Time Altitude Azimuth Distance (km) Brightness Sun altitude
Rises 18:28:54 0° 195° (SSW) 2,617 5.9 -22.1°
Reaches altitude 10° 18:31:02 10° 198° (SSW) 1,731 5.0 -22.5°
Maximum altitude 18:34:48 64° 280° (W) 571 2.5 -23.1°
Enters shadow 18:37:14 21° 358° (N) 1,200 4.1 -23.6°
